Time,TemperatureF,DewpointF,PressureIn,WindDirection,WindDirectionDegrees,WindSpeedMPH,WindSpeedGustMPH,Humidity,HourlyPrecipIn,Conditions,Clouds,dailyrainin,SoftwareType,DateUTC
2013-01-16 00:00:00,47.0,-1.0,-100.00,NNW,348,21.0,31.0,13,-99.99,,,-99.99,,2013-01-16 08:00:00,
2013-01-16 01:00:00,47.0,-7.0,-100.00,NNW,331,22.0,31.0,10,-99.99,,,-99.99,,2013-01-16 09:00:00,
2013-01-16 02:00:00,45.0,2.0,-100.00,NNW,333,20.0,25.0,16,-99.99,,,-99.99,,2013-01-16 10:00:00,
2013-01-16 03:00:00,47.0,-1.0,-100.00,NW,315,14.0,23.0,13,-99.99,,,-99.99,,2013-01-16 11:00:00,
2013-01-16 04:00:00,46.0,-4.0,-100.00,NNW,338,20.0,28.0,12,-99.99,,,-99.99,,2013-01-16 12:00:00,
2013-01-16 05:00:00,46.0,2.0,-100.00,NNW,339,22.0,31.0,16,-99.99,,,-99.99,,2013-01-16 13:00:00,
2013-01-16 06:00:00,46.0,4.0,-100.00,NNW,340,23.0,30.0,17,-99.99,,,-99.99,,2013-01-16 14:00:00,
2013-01-16 08:00:00,45.0,4.0,-100.00,NNE,25,23.0,29.0,18,-99.99,,,-99.99,,2013-01-16 16:00:00,
2013-01-16 09:00:00,46.0,15.0,-100.00,NNW,330,22.0,30.0,28,-99.99,,,-99.99,,2013-01-16 17:00:00,
2013-01-16 10:00:00,47.0,15.0,-100.00,NNW,335,20.0,27.0,27,-99.99,,,-99.99,,2013-01-16 18:00:00,
2013-01-16 12:00:00,48.0,9.0,-100.00,NNW,339,15.0,20.0,20,-99.99,,,-99.99,,2013-01-16 20:00:00,
2013-01-16 13:00:00,49.0,2.0,-100.00,NW,310,15.0,20.0,14,-99.99,,,-99.99,,2013-01-16 21:00:00,
2013-01-16 14:00:00,49.0,-3.0,-100.00,NNW,346,13.0,20.0,11,-99.99,,,-99.99,,2013-01-16 22:00:00,
2013-01-16 15:00:00,51.0,-2.0,-100.00,North,355,12.0,16.0,11,-99.99,,,-99.99,,2013-01-16 23:00:00,
2013-01-16 16:00:00,48.0,4.0,-100.00,WNW,292,8.0,15.0,16,-99.99,,,-99.99,,2013-01-17 00:00:00,
2013-01-16 17:00:00,48.0,3.0,-100.00,NNW,332,6.0,13.0,15,-99.99,,,-99.99,,2013-01-17 01:00:00,
2013-01-16 18:00:00,47.0,2.0,-100.00,WNW,300,9.0,13.0,15,-99.99,,,-99.99,,2013-01-17 02:00:00,
2013-01-16 19:00:00,46.0,4.0,-100.00,WNW,303,6.0,9.0,17,-99.99,,,-99.99,,2013-01-17 03:00:00,
2013-01-16 20:00:00,43.0,10.0,-100.00,West,269,6.0,9.0,25,-99.99,,,-99.99,,2013-01-17 04:00:00,
2013-01-16 21:00:00,45.0,-3.0,-100.00,West,268,7.0,12.0,13,-99.99,,,-99.99,,2013-01-17 05:00:00,
2013-01-16 22:00:00,43.0,5.0,-100.00,North,357,1.0,9.0,20,-99.99,,,-99.99,,2013-01-17 06:00:00,
2013-01-16 23:00:00,42.0,5.0,-100.00,NE,39,1.0,7.0,21,-99.99,,,-99.99,,2013-01-17 07:00:00,